Weather History for Jackson, KY

Change the Weather History Date:

Wednesday, May 15, 2013

  Actual Average Record
Temperature  
Mean Temperature 75 °F 64 °F  
Max Temperature 85 °F 74 °F 88 °F (1998)
Min Temperature 64 °F 54 °F 37 °F (1997)
Degree Days  
Heating Degree Days 0 3  
Month to date heating degree days 79 63  
Since 1 July heating degree days 4341 4184  
Cooling Degree Days 10 3  
Month to date cooling degree days 16 34  
Year to date cooling degree days 56 80  
Growing Degree Days 24 (Base 50)    
Moisture  
Dew Point 53 °F    
Average Humidity 51    
Maximum Humidity 67    
Minimum Humidity 34    
Precipitation  
Precipitation 0.00 in 0.18 in 1.67 in (2010)
Month to date precipitation 3.06 2.44  
Year to date precipitation 19.03 17.75  
Snow  
Snow 0.00 in 0.00 in - ()
Month to date snowfall 0.0 0.0  
Since 1 July snowfall 20.0 23.5  
Snow Depth 0.00 in    
Sea Level Pressure  
Sea Level Pressure 29.97 in    
Wind  
Wind Speed 4 mph (North)    
Max Wind Speed 10 mph    
Max Gust Speed 22 mph    
Visibility 10 miles    
Events      
T = Trace of Precipitation, MM = Missing Value Source: NWS Daily Summary

Daily Weather History Graph

Daily Weather History Graph

Search for Another Location

Airport:

Trip Planner

Search our weather history database for the weather conditions in past years. The results will help you decide how hot, cold, wet, or windy it might be!

Date:

Astronomy

May. 15, 2013 Rise Set
Actual Time 6:23 AM EDT 8:36 PM EDT
Civil Twilight 5:54 AM EDT 9:05 PM EDT
Nautical Twilight 5:18 AM EDT 9:41 PM EDT
Astronomical Twilight 4:39 AM EDT 10:20 PM EDT
Moon 10:57 AM EDT (5/15) 12:22 AM EDT (5/15)
Length of Visible Light 15h 11m
Length of Day
14h 12m
Waxing Crescent, 26% of the Moon is Illuminated
May 15
Waxing Crescent
May 18
First Quarter
May 25
Full
May 31
Last Quarter
Jun 8
New

Hourly Weather History & Observations

Time (EDT) Temp. Heat Index Dew Point Humidity Pressure Visibility Wind Dir Wind Speed Gust Speed Precip Events Conditions
12:53 AM 66.0 °F - 52.0 °F 60% 29.96 in 10.0 mi Variable 4.6 mph - N/A   Clear
1:53 AM 66.9 °F - 53.1 °F 61% 29.95 in 10.0 mi Variable 4.6 mph - N/A   Clear
2:53 AM 68.0 °F - 53.1 °F 59% 29.96 in 10.0 mi Variable 6.9 mph - N/A   Clear
3:53 AM 66.9 °F - 54.0 °F 63% 29.96 in 10.0 mi Variable 3.5 mph - N/A   Clear
4:53 AM 66.0 °F - 54.0 °F 65% 29.96 in 10.0 mi Variable 4.6 mph - N/A   Clear
5:53 AM 64.9 °F - 53.1 °F 65% 29.97 in 10.0 mi Variable 3.5 mph - N/A   Clear
6:53 AM 64.9 °F - 53.1 °F 65% 30.00 in 10.0 mi Variable 5.8 mph - N/A   Clear
7:53 AM 66.9 °F - 54.0 °F 63% 30.01 in 10.0 mi Variable 3.5 mph - N/A   Clear
8:53 AM 69.1 °F - 55.0 °F 61% 30.02 in 10.0 mi Variable 4.6 mph - N/A   Clear
9:53 AM 72.0 °F - 55.9 °F 57% 30.04 in 10.0 mi Calm Calm - N/A   Clear
10:53 AM 75.0 °F - 57.0 °F 53% 30.03 in 10.0 mi Variable 4.6 mph - N/A   Clear
11:53 AM 79.0 °F - 57.9 °F 48% 30.02 in 10.0 mi Variable 5.8 mph - N/A   Clear
12:53 PM 82.0 °F 82.0 °F 57.9 °F 44% 30.01 in 10.0 mi Variable 4.6 mph - N/A   Clear
1:53 PM 82.0 °F 81.7 °F 57.0 °F 42% 29.99 in 10.0 mi Calm Calm - N/A   Clear
2:53 PM 84.0 °F 83.3 °F 57.0 °F 40% 29.97 in 10.0 mi Variable 3.5 mph - N/A   Clear
3:53 PM 84.0 °F 82.6 °F 54.0 °F 35% 29.95 in 10.0 mi Variable 6.9 mph - N/A   Clear
4:53 PM 84.9 °F 83.2 °F 53.1 °F 33% 29.94 in 10.0 mi Variable 6.9 mph - N/A   Clear
5:53 PM 82.9 °F - 52.0 °F 34% 29.92 in 10.0 mi Variable 4.6 mph - N/A   Clear
6:53 PM 81.0 °F - 50.0 °F 34% 29.91 in 10.0 mi Variable 5.8 mph - N/A   Clear
7:53 PM 78.1 °F - 48.9 °F 36% 29.91 in 10.0 mi Variable 4.6 mph - N/A   Clear
8:53 PM 73.9 °F - 48.9 °F 41% 29.92 in 10.0 mi Variable 3.5 mph - N/A   Clear
9:53 PM 73.0 °F - 48.9 °F 42% 29.94 in 10.0 mi Variable 4.6 mph - N/A   Clear
10:53 PM 72.0 °F - 48.9 °F 44% 29.95 in 10.0 mi Calm Calm - N/A   Clear
11:53 PM 71.1 °F - 48.0 °F 44% 29.94 in 10.0 mi Variable 4.6 mph - N/A   Clear